Wichita, KS

1:16 PM CDT on March 23, 2017 (GMT -0500)
Wichita Eisenhower National Airport

Weather History for KICT - January, 2014

Change the Weather History Date:

Monday, January 13, 2014

  Actual Average Record
Temperature  
Mean Temperature 45 °F 32 °F  
Max Temperature 55 °F 42 °F 70 °F (1996)
Min Temperature 34 °F 22 °F -11 °F (1916)
Degree Days  
Heating Degree Days 20 33  
Month to date heating degree days 452 429  
Since 1 July heating degree days 2407 2272  
Cooling Degree Days 0 0  
Month to date cooling degree days 0 0  
Year to date cooling degree days 0 0  
Moisture  
Dew Point 25 °F    
Average Humidity 51    
Maximum Humidity 76    
Minimum Humidity 26    
Precipitation  
Precipitation 0.00 in 0.02 in 0.54 in (1898)
Month to date precipitation 0.11 0.30  
Year to date precipitation 0.11 0.30  
Snow  
Snow 0.00 in 0.10 in 4.50 in (1898)
Month to date snowfall 2.9 1.4  
Since 1 July snowfall 6.3 7.0  
Snow Depth 0.00 in    
Sea Level Pressure  
Sea Level Pressure 29.90 in    
Wind  
Wind Speed 11 mph (West)    
Max Wind Speed 17 mph    
Max Gust Speed 22 mph    
Visibility 10 miles    
Events      
T = Trace of Precipitation, MM = Missing Value Source: NWS Daily Summary

Daily Weather History Graph

Daily Weather History Graph

Search for Another Location

Airport or City:

Trip Planner

Search our weather history database for the weather conditions in past years. The results will help you decide how hot, cold, wet, or windy it might be!

Date:

Astronomy

Jan. 13, 2014 Rise Set
Actual Time 7:44 AM CST 5:33 PM CST
Civil Twilight 7:15 AM CST 6:01 PM CST
Nautical Twilight 6:43 AM CST 6:34 PM CST
Astronomical Twilight 6:11 AM CST 7:05 PM CST
Moon 3:48 PM CST (1/13) 5:34 AM CST (1/13)
Length of Visible Light 10h 46m
Length of Day
9h 48m
Waxing Gibbous, 95% of the Moon is Illuminated
Jan 13
Waxing Gibbous
Jan 15
Full
Jan 23
Last Quarter
Jan 30
New
Feb 6
First Quarter

Hourly Weather History & Observations

Time (CST) Temp. Windchill Dew Point Humidity Pressure Visibility Wind Dir Wind Speed Gust Speed Precip Events Conditions
12:53 AM 39.9 °F 35.8 °F 32.0 °F 73% 29.74 in 10.0 mi NW 5.8 mph - N/A   Scattered Clouds
1:53 AM 39.0 °F 32.3 °F 32.0 °F 76% 29.79 in 10.0 mi West 10.4 mph - N/A   Scattered Clouds
2:53 AM 41.0 °F 32.8 °F 26.1 °F 55% 29.80 in 10.0 mi WNW 16.1 mph - N/A   Scattered Clouds
3:53 AM 39.0 °F 30.6 °F 25.0 °F 57% 29.83 in 10.0 mi NW 15.0 mph - N/A   Partly Cloudy
4:53 AM 37.9 °F 29.2 °F 26.1 °F 62% 29.85 in 10.0 mi NW 15.0 mph - N/A   Partly Cloudy
5:53 AM 37.0 °F 28.1 °F 27.0 °F 67% 29.88 in 10.0 mi NW 15.0 mph - N/A   Clear
6:53 AM 35.1 °F 27.4 °F 27.0 °F 72% 29.91 in 10.0 mi NW 10.4 mph - N/A   Clear
7:53 AM 34.0 °F 25.5 °F 26.1 °F 73% 29.94 in 10.0 mi NW 11.5 mph - N/A   Partly Cloudy
8:53 AM 37.0 °F 28.5 °F 27.0 °F 67% 29.96 in 10.0 mi NW 13.8 mph - N/A   Clear
9:53 AM 42.1 °F 35.2 °F 27.0 °F 55% 29.98 in 10.0 mi NNW 12.7 mph - N/A   Clear
10:53 AM 46.0 °F 40.2 °F 28.0 °F 50% 29.99 in 10.0 mi NW 12.7 mph - N/A   Clear
11:53 AM 48.0 °F - 28.0 °F 46% 29.99 in 10.0 mi WNW 11.5 mph - N/A   Clear
12:53 PM 48.9 °F - 28.0 °F 44% 29.95 in 10.0 mi WNW 9.2 mph - N/A   Partly Cloudy
1:53 PM 52.0 °F - 27.0 °F 38% 29.92 in 10.0 mi West 12.7 mph - N/A   Scattered Clouds
2:53 PM 54.0 °F - 26.1 °F 34% 29.91 in 10.0 mi WSW 12.7 mph - N/A   Partly Cloudy
3:53 PM 55.0 °F - 21.0 °F 27% 29.91 in 10.0 mi West 12.7 mph - N/A   Partly Cloudy
4:53 PM 53.1 °F - 19.9 °F 27% 29.91 in 10.0 mi West 9.2 mph - N/A   Partly Cloudy
5:53 PM 44.1 °F 40.1 °F 21.0 °F 40% 29.90 in 10.0 mi SW 6.9 mph - N/A   Scattered Clouds
6:53 PM 39.9 °F 35.8 °F 21.9 °F 49% 29.89 in 10.0 mi SSW 5.8 mph - N/A   Scattered Clouds
7:53 PM 37.0 °F 31.0 °F 21.0 °F 52% 29.89 in 10.0 mi SW 8.1 mph - N/A   Scattered Clouds
8:53 PM 36.0 °F 29.0 °F 21.9 °F 57% 29.89 in 10.0 mi SW 9.2 mph - N/A   Scattered Clouds
9:53 PM 34.0 °F 26.6 °F 21.9 °F 61% 29.88 in 10.0 mi WSW 9.2 mph - N/A   Scattered Clouds
10:53 PM 36.0 °F 29.6 °F 21.0 °F 55% 29.88 in 10.0 mi WSW 8.1 mph - N/A   Scattered Clouds
11:53 PM 34.0 °F 26.6 °F 21.0 °F 59% 29.87 in 10.0 mi WSW 9.2 mph - N/A   Scattered Clouds